Home > Weather > Warendorf > Past weeks

Flag for Germany Weather for the Past 2 Weeks in Warendorf, North Rhine-Westphalia, Germany

Now
36 °F

Passing clouds.


Feels Like: 33 °F
Forecast: 36 / 39 °F
Wind: 3 mph from East

Location: Muenster / Osnabrueck

Current Time: Feb 13, 2016 at 11:09:07 AM

Latest Report: Feb 13, 2016 at 10:20 AM


Visibility: N/A

Pressure: 29.33 "Hg

Humidity: 81%

Dew point: 30 °F

Location of WarendorfLocation

Historic Weather in Warendorf — Graph

°F

Warendorf Temperature Yesterday

Maximum temperature yesterday: 43 °F (at 1:20 PM)
Minimum temperature yesterday: 32 °F (at 11:20 PM)
Average temperature yesterday: 37 °F

High & Low Weather Summary for the Past Weeks

 TemperatureHumidityPressure
High54 °F (Feb 1, 3:50 PM)100% (Jan 31, 6:50 PM)30.27 "Hg (Jan 31, 6:50 PM)
Low28 °F (Feb 13, 3:20 AM)57% (Feb 3, 1:20 PM)28.77 "Hg (Feb 9, 5:50 PM)
Average43 °F83%29.71 "Hg
* Reported Jan 29 9:20 AM — Feb 13 9:50 AM, Warendorf, Weather by CustomWeather, © 2016

Note: Actual official high and low records may vary slightly from our data, if they occured in-between our weather recording intervals... More about our weather records

Advertising

Warendorf Weather History for the Previous 24 Hours

 ConditionsComfort  
Time TempWeatherWind HumidityBarometerVisibility
9:50 AM
Sat, Feb 13
34 °FSunny.6 mph87%29.33 "Hg10 mi
9:20 AM32 °FPassing clouds.5 mph93%29.36 "HgN/A
8:50 AM30 °FPassing clouds.5 mph100%29.36 "HgN/A
8:20 AM28 °FPassing clouds.5 mph93%29.36 "HgN/A
7:50 AM28 °FPassing clouds.3 mph100%29.36 "HgN/A
7:20 AM28 °FPassing clouds.3 mph100%29.36 "HgN/A
6:50 AM28 °FFog.3 mph100%29.39 "Hg6 mi
6:20 AM28 °FFog.3 mph100%29.39 "HgN/A
5:50 AM28 °FFog.3 mph100%29.39 "HgN/A
5:20 AM28 °FFog.3 mph100%29.39 "HgN/A
4:50 AM28 °FClear.2 mph93%29.39 "Hg10 mi
4:20 AM30 °FPassing clouds.3 mph93%29.42 "HgN/A
3:20 AM28 °FPassing clouds.3 mph100%29.42 "HgN/A
2:20 AM32 °FPassing clouds.3 mph93%29.42 "HgN/A
1:50 AM30 °FClear.2 mph93%29.45 "Hg10 mi
1:20 AM32 °FPassing clouds.3 mph93%29.45 "HgN/A
12:50 AM32 °FClear.5 mph93%29.45 "Hg10 mi
12:20 AM32 °FClear.5 mph93%29.45 "Hg10 mi
11:50 PM
Fri, Feb 12
32 °FPassing clouds.3 mph93%29.45 "HgN/A
11:20 PM32 °FPassing clouds.3 mph93%29.45 "HgN/A
10:20 PM34 °FPassing clouds.5 mph87%29.47 "HgN/A
9:50 PM34 °FClear.5 mph87%29.47 "Hg10 mi
9:20 PM34 °FPassing clouds.3 mph87%29.47 "HgN/A
8:50 PM34 °FPassing clouds.3 mph87%29.47 "HgN/A
8:20 PM36 °FPassing clouds.3 mph87%29.47 "HgN/A
7:50 PM36 °FPassing clouds.5 mph87%29.47 "HgN/A
7:20 PM37 °FPassing clouds.2 mph87%29.47 "HgN/A
6:50 PM37 °FPassing clouds.3 mph87%29.47 "HgN/A
6:20 PM39 °FPassing clouds.3 mph81%29.47 "HgN/A
5:50 PM39 °FPassing clouds.3 mph75%29.47 "HgN/A
5:20 PM41 °FScattered clouds.3 mph76%29.47 "HgN/A
4:50 PM41 °FPassing clouds.3 mph76%29.47 "HgN/A
4:20 PM43 °FPartly sunny.3 mph66%29.47 "HgN/A
3:50 PM43 °FPartly sunny.5 mph66%29.47 "HgN/A
3:20 PM43 °FPartly sunny.6 mph71%29.47 "HgN/A
2:50 PM43 °FPartly sunny.7 mph66%29.50 "HgN/A
2:20 PM43 °FPartly sunny.7 mph66%29.50 "HgN/A
1:50 PM43 °FPartly sunny.7 mph76%29.50 "HgN/A
1:20 PM43 °FPartly sunny.7 mph76%29.53 "HgN/A
12:50 PM41 °FPartly sunny.6 mph81%29.53 "HgN/A
12:20 PM41 °FPartly sunny.8 mph81%29.53 "HgN/A
11:50 AM39 °FPartly sunny.9 mph81%29.56 "HgN/A
11:20 AM39 °FPartly sunny.6 mph87%29.56 "HgN/A
Weather by CustomWeather, © 2016

See weather overviewHow to use our weather pages